TOURFACTS.DK  
Stats and Facts from Tour de France.

Tour de France 2019 starts in 347 days
  Riders   Stages   Teams   Summits   Yearly  


 
Search by year

After 2018 - Stage 14:
 15000 starters.
  5163 different riders.
  639 teams.
  2246 stages.
  456 restdays.
  441957.60 km.
  5678 abandonnees.


Top 3
GC
Christopher Froome86:20:55
Rigoberto Urán86:21:49
Romain Bardet86:23:15
Climb
Warren Barguil169 pt.
Primoz Roglic80 pt.
Thomas De Gendt64 pt.
Sprint
Michael Matthews359 pt.
André Greipel234 pt.
Edvald Boasson Hagen220 pt.
Youth
Simon Yates86:27:09
Louis Meintjes86:29:15
Emanuel Buchmann86:54:16
Facts from Tour de France 2002
  |   Stages.  |   Stage winners.  |   Days in yellow  |   Average speed.  |   Route.  |   Teams.  |   All riders.  |   Rookies.  |  

  |   Withdrawls.  |   GC.  |   Polka  |   Green  |   White  |   Summits. (In tour)  |   Miscellaneous.  |  

Stage 19 on July 27th. 2002
         Owning:    Lance Armstrong    
Pick a stage:  Pro 1 2 3 4 5 6 7 8 9 10 11 12 13 14 15 16 17 18 19 20
From: Régnié-Durette    To: MâconDist:50.00 km.
Cat: 3Côte de Fut de AvenasURSRaimondas Rumsas
10 points
 

Average speed for all riders in stage:  42,652 km./hr.
    Place:Name:Team:Time:Km/h:
USALance ArmstrongUSAUS Postal Service01:03:50  +  00:00:00=46,997 
URSRaimondas RumsasITALampre-Daikin01:04:43  +  00:00:53=46,356 
HUNLaszlo BodrogiITAMapei-Quick Step01:04:56  +  00:01:06=46,201 
4 MLTDavid MillarFRACofidis Credit Par Telephone01:05:04  +  00:01:14=46,107 
5 ESPIgor GonzalezESPO.N.C.E.-Eroski01:05:32  +  00:01:42=45,778 
6 UKRSerhiy HoncharITAFassa Bortolo01:05:33  +  00:01:43=45,767 
7 URSRaivis BelohvosciksITALampre-Daikin01:05:59  +  00:02:09=45,466 
8 COLSantiago BoteroESPKelme-Costa Blanca01:06:01  +  00:02:11=45,443 
9 ESPJoseba BelokiESPO.N.C.E.-Eroski01:06:01  +  00:02:11=45,443 
10 COLVictor Hugo PenaUSAUS Postal Service01:06:19  +  00:02:29=45,237 
11 USATyler HamiltonDNKTeam CSC-Tiscali01:06:36  +  00:02:46=45,045 
12 ITAMassimiliano LelliFRACofidis Credit Par Telephone01:06:45  +  00:02:55=44,944 
13 NEDMichael BoogerdNLDRabobank01:06:51  +  00:03:01=44,877 
14 USALevi LeipheimerNLDRabobank01:07:03  +  00:03:13=44,743 
15 AUSBradley McGeeFRAfdjeux.com01:07:12  +  00:03:22=44,643 
16 PORJosé AzevedoESPO.N.C.E.-Eroski01:07:26  +  00:03:36=44,488 
17 ESPFrancisco ManceboESPibanesto.com01:07:27  +  00:03:37=44,477 
18 BELMarc WautersNLDRabobank01:07:29  +  00:03:39=44,455 
19 USABobby JulichUSATeam Telekom01:07:32  +  00:03:42=44,423 
20 ITAMarzio BruseghinESPibanesto.com01:07:38  +  00:03:48=44,357 
21 FRADavid MoncoutiéFRACofidis Credit Par Telephone01:07:50  +  00:04:00=44,226 
22 RUSDenis MenchovESPibanesto.com01:07:58  +  00:04:08=44,139 
23 FRAChristophe EdaleineFRAJean Delatour01:07:58  +  00:04:08=44,139 
24 ITAIvan BassoITAFassa Bortolo01:08:04  +  00:04:14=44,074 
25 FRAEmmanuel MagnienFRABonjour01:08:06  +  00:04:16=44,053 
26 ESPCarlos SastreDNKTeam CSC-Tiscali01:08:06  +  00:04:16=44,053 
27 ESPJosé Enrique GutierrezESPKelme-Costa Blanca01:08:13  +  00:04:23=43,978 
28 ESPRoberto HerasUSAUS Postal Service01:08:14  +  00:04:24=43,967 
29 GERDanilo HondoUSATeam Telekom01:08:16  +  00:04:26=43,945 
30 FRALaurent JalabertDNKTeam CSC-Tiscali01:08:16  +  00:04:26=43,945 
31 USAFloyd LandisUSAUS Postal Service01:08:17  +  00:04:27=43,935 
32 ESPIsidro NozalESPO.N.C.E.-Eroski01:08:23  +  00:04:33=43,870 
33 FRASylvain ChavanelFRABonjour01:08:37  +  00:04:47=43,721 
34 FRAStéphane GoubertFRAJean Delatour01:08:37  +  00:04:47=43,721 
35 ESPPedro HorrilloITAMapei-Quick Step01:08:39  +  00:04:49=43,700 
36 FRASandy CasarFRAfdjeux.com01:08:41  +  00:04:51=43,679 
37 BELSerge BaguetBELLotto-Adecco01:08:48  +  00:04:58=43,605 
38 FRALaurent LefèvreFRAJean Delatour01:08:51  +  00:05:01=43,573 
39 URSViatcheslav EkimovUSAUS Postal Service01:09:05  +  00:05:15=43,426 
40 AUSStuart O'GradyFRACredit Agricole01:09:06  +  00:05:16=43,415 
41 ESPUnai OsaESPibanesto.com01:09:10  +  00:05:20=43,373 
42 ITAMarco SerpelliniITALampre-Daikin01:09:11  +  00:05:21=43,363 
43 RUSSerguei IvanovITAFassa Bortolo01:09:18  +  00:05:28=43,290 
44 FRALaurent BrochardFRAJean Delatour01:09:22  +  00:05:32=43,248 
45 AUTGerhard TrampuschITAMapei-Quick Step01:09:27  +  00:05:37=43,197 
46 ESPIban MayoESPEuskaltel - Euskadi01:09:29  +  00:05:39=43,176 
47 NEDErik DekkerNLDRabobank01:09:29  +  00:05:39=43,176 
48 UKRVolodymir GustovITAFassa Bortolo01:09:35  +  00:05:45=43,114 
49 POLDariusz BaranowskiESPibanesto.com01:09:35  +  00:05:45=43,114 
50 GERSteffen WesemannUSATeam Telekom01:09:37  +  00:05:47=43,093 
51 USAGeorge HincapieUSAUS Postal Service01:09:38  +  00:05:48=43,083 
52 ITAIvan GottiITAAlessio01:09:39  +  00:05:49=43,073 
53 FRAStéphane AugeFRAJean Delatour01:09:39  +  00:05:49=43,073 
54 BELLudo DierckxsensITALampre-Daikin01:09:40  +  00:05:50=43,062 
55 FRAAnthony MorinFRACredit Agricole01:09:41  +  00:05:51=43,052 
56 FRACyril DesselFRAJean Delatour01:09:42  +  00:05:52=43,042 
57 GERJörg JakscheESPO.N.C.E.-Eroski01:09:42  +  00:05:52=43,042 
58 GERRolf AldagUSATeam Telekom01:09:43  +  00:05:53=43,031 
59 FRAFranck RenierFRABonjour01:09:49  +  00:05:59=42,970 
60 FRANicolas VogondyFRAfdjeux.com01:09:51  +  00:06:01=42,949 
61 MARRichard VirenqueBELDomo-Farm Frites01:09:52  +  00:06:02=42,939 
62 BELPaul Van HyfteDNKTeam CSC-Tiscali01:09:54  +  00:06:04=42,918 
63 SUIBeat ZbergNLDRabobank01:09:55  +  00:06:05=42,908 
64 ESPMikel PraderaESPO.N.C.E.-Eroski01:09:57  +  00:06:07=42,888 
65 BELChristophe BrandtBELLotto-Adecco01:10:03  +  00:06:13=42,827 
66 ITAEnrico CassaniBELDomo-Farm Frites01:10:05  +  00:06:15=42,806 
67 BELNico MattanFRACofidis Credit Par Telephone01:10:05  +  00:06:15=42,806 
68 ESPIñigo CuestaFRACofidis Credit Par Telephone01:10:09  +  00:06:19=42,766 
69 ESPAbraham OlanoESPO.N.C.E.-Eroski01:10:11  +  00:06:21=42,745 
70 DENNicki SørensenDNKTeam CSC-Tiscali01:10:14  +  00:06:24=42,715 
71 LUXBenoit JoachimUSAUS Postal Service01:10:17  +  00:06:27=42,684 
72 BELMario AertsBELLotto-Adecco01:10:21  +  00:06:31=42,644 
73 FRAFranck BouyerFRABonjour01:10:22  +  00:06:32=42,634 
74 FRAStéphane BergesFRAAg2r Prevoyance01:10:24  +  00:06:34=42,614 
75 NEDBram de GrootNLDRabobank01:10:25  +  00:06:35=42,604 
76 POLPiotr WadeckiBELDomo-Farm Frites01:10:34  +  00:06:44=42,513 
77 ITAWladimir BelliITAFassa Bortolo01:10:36  +  00:06:46=42,493 
78 GERGrischa NiermannNLDRabobank01:10:36  +  00:06:46=42,493 
79 ESPHaimar ZubeldiaESPEuskaltel - Euskadi01:10:36  +  00:06:46=42,493 
80 BELThierry MarichalBELLotto-Adecco01:10:37  +  00:06:47=42,483 
81 FRACédric VasseurFRACofidis Credit Par Telephone01:10:38  +  00:06:48=42,473 
82 CZETomas KonecnyBELDomo-Farm Frites01:10:43  +  00:06:53=42,423 
83 ITACristian MoreniITAAlessio01:10:45  +  00:06:55=42,403 
84 ESPJosé RubieraUSAUS Postal Service01:10:47  +  00:06:57=42,383 
85 FRAAndy FlickingerFRAAg2r Prevoyance01:10:47  +  00:06:57=42,383 
86 ESPIñigo ChaurreauFRAAg2r Prevoyance01:10:49  +  00:06:59=42,363 
87 KAZAndrei KivilevFRACofidis Credit Par Telephone01:10:52  +  00:07:02=42,333 
88 ITAAndrea TafiITAMapei-Quick Step01:10:54  +  00:07:04=42,313 
89 ITADario FrigoITATacconi Sport01:11:01  +  00:07:11=42,244 
90 ITAEddy MazzoleniITATacconi Sport01:11:03  +  00:07:13=42,224 
91 ESPIgor Flores GalarzaESPEuskaltel - Euskadi01:11:03  +  00:07:13=42,224 
92 NORThor HushovdFRACredit Agricole01:11:10  +  00:07:20=42,155 
93 CZEPavel PadrnosUSAUS Postal Service01:11:10  +  00:07:20=42,155 
94 ITAAlessandro CortinovisITALampre-Daikin01:11:13  +  00:07:23=42,125 
95 FRADamien NazonFRABonjour01:11:14  +  00:07:24=42,115 
96 ESPGorka ArrizabalagaESPEuskaltel - Euskadi01:11:20  +  00:07:30=42,056 
97 DDRErik ZabelUSATeam Telekom01:11:23  +  00:07:33=42,027 
98 USAKevin LivingstonUSATeam Telekom01:11:24  +  00:07:34=42,017 
99 FRAEddy SeigneurFRAJean Delatour01:11:29  +  00:07:39=41,968 
100 NEDServais KnavenBELDomo-Farm Frites01:11:32  +  00:07:42=41,938 
101 VENUnai EtxebarriaESPEuskaltel - Euskadi01:11:32  +  00:07:42=41,938 
102 ESPMarcos SerranoESPO.N.C.E.-Eroski01:11:33  +  00:07:43=41,929 
103 FRAChristophe AgnoluttoFRAAg2r Prevoyance01:11:34  +  00:07:44=41,919 
104 ESPConstantino ZaballaESPKelme-Costa Blanca01:11:35  +  00:07:45=41,909 
105 ESPRoberto LaisekaESPEuskaltel - Euskadi01:11:35  +  00:07:45=41,909 
106 FRALudovic TurpinFRAAg2r Prevoyance01:11:37  +  00:07:47=41,890 
107 ESPFrancisco CabelloESPKelme-Costa Blanca01:11:38  +  00:07:48=41,880 
108 ITAAndrea BrognaraITAAlessio01:11:41  +  00:07:51=41,851 
109 GERJens VoigtFRACredit Agricole01:11:42  +  00:07:52=41,841 
110 AUSBaden CookeFRAfdjeux.com01:11:43  +  00:07:53=41,831 
111 FRAPatrice HalgandFRAJean Delatour01:11:43  +  00:07:53=41,831 
112 FRAChristophe MenginFRAfdjeux.com01:11:46  +  00:07:56=41,802 
113 FRAJean-Cyril RobinFRAfdjeux.com01:11:49  +  00:07:59=41,773 
114 GERUdo BöltsUSATeam Telekom01:11:52  +  00:08:02=41,744 
115 ITAFabio BaldatoITAFassa Bortolo01:11:53  +  00:08:03=41,734 
116 ITAMarco VeloITAFassa Bortolo01:11:54  +  00:08:04=41,725 
117 RUSGuennadi MikhailovBELLotto-Adecco01:11:54  +  00:08:04=41,725 
118 BELAxel MerckxBELDomo-Farm Frites01:11:58  +  00:08:08=41,686 
119 ITAGianluca BortolamiITATacconi Sport01:12:04  +  00:08:14=41,628 
120 FRAAnthony LangellaFRACredit Agricole01:12:04  +  00:08:14=41,628 
121 FRAFrédéric BessyFRACredit Agricole01:12:04  +  00:08:14=41,628 
122 ITAGiuseppe GueriniUSATeam Telekom01:12:08  +  00:08:18=41,590 
123 SLOMartin HvastijaITAAlessio01:12:09  +  00:08:19=41,580 
124 NEDAddy EngelsNLDRabobank01:12:15  +  00:08:25=41,522 
125 SVKJán SvoradaITALampre-Daikin01:12:16  +  00:08:26=41,513 
126 RSARobert HunterITAMapei-Quick Step01:12:21  +  00:08:31=41,465 
127 ESPBingen FernandezFRACofidis Credit Par Telephone01:12:24  +  00:08:34=41,436 
128 RUSAlexandre BotcharovFRAAg2r Prevoyance01:12:28  +  00:08:38=41,398 
129 SUIThierry LoderFRAAg2r Prevoyance01:12:31  +  00:08:41=41,370 
130 NEDLeon van BonBELDomo-Farm Frites01:12:31  +  00:08:41=41,370 
131 ESPMiguel Angel MartinezITAMapei-Quick Step01:12:33  +  00:08:43=41,351 
132 ESPSantiago BlancoESPibanesto.com01:12:35  +  00:08:45=41,332 
133 BELHans De ClercqBELLotto-Adecco01:12:36  +  00:08:46=41,322 
134 ESPDavid EtxebarriaESPEuskaltel - Euskadi01:12:43  +  00:08:53=41,256 
135 FRAJérôme PineauFRABonjour01:12:45  +  00:08:55=41,237 
136 ESPDavid LatasaESPibanesto.com01:12:46  +  00:08:56=41,228 
137 ITAMassimo ApollonioITATacconi Sport01:12:46  +  00:08:56=41,228 
138 FRAWalter BénéteauFRABonjour01:13:04  +  00:09:14=41,058 
139 ITADavide CasarottoITAAlessio01:13:09  +  00:09:19=41,012 
140 ESPJavier PascualESPibanesto.com01:13:09  +  00:09:19=41,012 
141 NEDKarsten KroonNLDRabobank01:13:18  +  00:09:28=40,928 
142 ITAGian Matteo FagniniUSATeam Telekom01:13:26  +  00:09:36=40,853 
143 FRAJérôme BernardFRAJean Delatour01:13:29  +  00:09:39=40,826 
144 ITAAndrea PeronDNKTeam CSC-Tiscali01:13:29  +  00:09:39=40,826 
145 FRASébastien HinaultFRACredit Agricole01:13:33  +  00:09:43=40,789 
146 ITANicola LodaITAFassa Bortolo01:13:40  +  00:09:50=40,724 
147 ESPJosé Angel VidalESPKelme-Costa Blanca01:13:49  +  00:09:59=40,641 
148 URSArvis PiziksDNKTeam CSC-Tiscali01:13:51  +  00:10:01=40,623 
149 AUSRobbie McEwenBELLotto-Adecco01:14:05  +  00:10:15=40,495 
150 ESPJosé GarciaESPibanesto.com01:14:21  +  00:10:31=40,350 
151 DENJakob PiilDNKTeam CSC-Tiscali01:14:27  +  00:10:37=40,296 
152 ITAMauro RadaelliITATacconi Sport01:14:31  +  00:10:41=40,259 
153 SUIRubens BertogliatiITALampre-Daikin01:17:29  +  00:13:39=38,718 


Todays birthdays.

1887  Donald Kirkham
1889  Théodore Abada
1911  Guillaume Chavard
1912  Jean Fontenay
1913  Fabien Galateau
1930  Roger Hassenforder
1930  Richard Van Genechten
1936  Philippe Gaudrillet
1937  Joseph Novales
1954  Hans-Peter Jakst
1960  Manuel Ramos
1973  David Etxebarria
1974  Rik Verbrugghe
1976  Jörg Jaksche




Visits: